Regional Weather Roundup
Issued by NWS

Home | Current Version | Previous Version | Text Only | Print | Product List | Glossary On
Versions: 1 2 3 4 5 6 7 8 9 10 11 12 13 14 15 16 17 18 19 20 21 22 23 24 25 26 27 28 29 30 31 32 33 34 35 36 37 38 39 40 41 42 43 44 45 46 47 48 49 50
000
ASUS43 KMPX 241601
RWRMN
WEATHER ROUNDUP FOR MINNESOTA
NATIONAL WEATHER SERVICE TWIN CITIES/CHANHASSEN MN
1100 AM CDT FRI OCT 24 2014


NOTE: "FAIR" INDICATES FEW OR NO CLOUDS BELOW 12,000 FEET WITH NO
SIGNIFICANT WEATHER AND/OR OBSTRUCTIONS TO VISIBILITY. N/A MEANS
CURRENT SKY AND/OR WEATHER CONDITIONS ARE NOT AVAILABLE.

MNZ060>063-068>070-241700-
   Twin Cities Metro

CITY           SKY/WX    TMP DP  RH WIND       PRES   REMARKS
TWIN CITIES    PTSUNNY   57  50  77 SE8       29.88F
ST PAUL        MOSUNNY   56  50  80 SE12      29.89F
CRYSTAL        MOSUNNY   58  49  72 SE13      29.86F
BLAINE         MOSUNNY   57  52  82 SE10      29.87F
LAKEVILLE      PTSUNNY   57  52  82 S7        29.87F
EDEN PRAIRIE   PTSUNNY   59  50  72 SE7       29.86F
SOUTH ST PAUL  MOSUNNY   56  50  80 S7        29.88F
LAKE ELMO      FAIR      57  52  82 S13       29.89F
$$
MNZ001>005-007-008-013>017-022>024-027-028-241700-
   Northwest Minnesota

CITY           SKY/WX    TMP DP  RH WIND       PRES   REMARKS
BEMIDJI        MOSUNNY   60  41  49 SW9       29.78F
HALLOCK          N/A     55  43  62 SW8       29.72S
ROSEAU         CLOUDY    55  43  62 SW10      29.72F
WARROAD        PTSUNNY   55  45  67 SW10      29.72S
THIEF RVR FALL PTSUNNY   55  41  58 SW9       29.77F
CROOKSTON      MOSUNNY   55  43  62 SW10      29.79R
FOSSTON        MOSUNNY   55  45  67 SW12      29.80S
DETROIT LAKES  MOSUNNY   57  45  62 W7        29.83S
MOORHEAD       MOSUNNY   54  45  71 SW6       29.84R
PARK RAPIDS    SUNNY     58  46  64 SW6       29.82R
$$
MNZ006-009>011-018-025>026-241700-
   North Central Minnesota

CITY           SKY/WX    TMP DP  RH WIND       PRES   REMARKS
BAUDETTE       MOSUNNY   59  41  51 SW9       29.72S
FLAG ISLAND    MOSUNNY   54  43  66 S5        29.68F
INTL FALLS     MOSUNNY   60  42  51 SW12G20   29.74S
WASKISH        MOSUNNY   59  43  55 CALM      29.76S
BIG FORK       PTSUNNY   59  45  58 SW9       29.79S
LONGVILLE      SUNNY     57  45  62 S6        29.81S
GRAND RAPIDS   MOSUNNY   55  45  67 S12       29.81F
CRANE LAKE     MOSUNNY   59  45  58 S8        29.78F
ORR            MOSUNNY   61  43  51 S7        29.76S
COOK           MOSUNNY   57  46  67 S8        29.79S
WALKER         FAIR      57  44  61 W8        29.81R
$$
MNZ012-019>021-037-241700-
   Northeast Minnesota

CITY           SKY/WX    TMP DP  RH WIND       PRES   REMARKS
DULUTH         MOSUNNY   57  46  66 SW13      29.84F
ELY            MOSUNNY   57  46  67 S13       29.79F
HIBBING        SUNNY     57  46  66 SW9       29.82S
EVELETH        SUNNY     54  48  82 S10       29.83S
DULUTH HARBOR  SUNNY     54  48  82 CALM      29.86F
TWO HARBORS    MOSUNNY   55  45  67 S9        29.83F
SILVER BAY     MOSUNNY   55  50  82 S8        29.83F
GRAND MARAIS     N/A     48  47  96 SW3       29.86F
G MARAIS ARPRT CLOUDY    46  45  93 S6        29.85F FOG
$$
MNZ029>031-032-039>041-046>048-054>057-064-241700-
   West Central Minnesota

CITY           SKY/WX    TMP DP  RH WIND       PRES   REMARKS
FERGUS FALLS   PTSUNNY   54  45  71 S5        29.85F
WHEATON        PTSUNNY   55  48  76 SW3       29.86S
MORRIS         PTSUNNY   57  50  77 CALM      29.84S
ALEXANDRIA     PTSUNNY   55  48  77 SW6       29.86R
ELBOW LAKE     FAIR      53  48  82 SW5       29.85R
WADENA         MOSUNNY   55  46  71 SW6       29.82F
GLENWOOD       PTSUNNY   55  48  76 W7        29.85S
APPLETON       PTSUNNY   55  48  76 W5        29.85S
BENSON         PTSUNNY   54  48  82 CALM      29.86R
ORTONVILLE     PTSUNNY   54  46  76 W5        29.86R
MADISON        PTSUNNY   61  52  72 W7        29.86R
WILLMAR        FAIR      55  46  71 SW3       29.87S
$$
MNZ033>034-036-042>043-049>051-058-059-241700-
   Central Minnesota

CITY           SKY/WX    TMP DP  RH WIND       PRES   REMARKS
ST CLOUD       PTSUNNY   59  47  64 SW8       29.86R
SAUK CENTRE    FAIR      54  46  75 SW3       29.85S
PAYNESVILLE    PTSUNNY   52  45  76 S3        29.86S
AITKIN         SUNNY     59  48  67 S7        29.83R
PINE RIVER     SUNNY     57  46  67 S5        29.86S
BRAINERD       SUNNY     56  44  64 SW9       29.84F
STAPLES        MOSUNNY   55  46  71 S3        29.83S
LONG PRAIRIE   FAIR      54  45  71 S5        29.85S
LITTLE FALLS   MOSUNNY   54  43  66 S3        29.85R
LITCHFIELD     PTSUNNY   57  50  77 CALM      29.86S
BUFFALO        PTSUNNY   58  48  68 S7        29.87S
MAPLE LAKE     PTSUNNY   58  50  74 S6        29.87R
$$
MNZ037-044-045-052-053-241700-
   East Central Minnesota

CITY           SKY/WX    TMP DP  RH WIND       PRES   REMARKS
PRINCETON      MOSUNNY   59  48  67 S8        29.86S
MORA           SUNNY     54  50  87 S6        29.87F
CAMBRIDGE      MOSUNNY   59  46  63 S8        29.84S
RUSH CITY      MOSUNNY   56  49  79 S9        29.86S
MOOSE LAKE     SUNNY     55  46  71 SW9       29.84S
HINCKLEY       FAIR      54  50  87 S8        29.86S
CLOQUET        SUNNY     55  46  71 S10       29.84F
MCGREGOR       SUNNY     55  48  76 S9        29.85S
$$
MNZ071>073-080-081-089-090-097-098-241700-
   Southwest Minnesota

CITY           SKY/WX    TMP DP  RH WIND       PRES   REMARKS
MONTEVIDEO     PTSUNNY   57  52  82 NW7       29.87R
GRANITE FALLS  PTSUNNY   56  51  82 W9        29.88R
CANBY          CLOUDY    60  51  69 W6        29.88R
MARSHALL       CLOUDY    61  48  63 NW10      29.86S
REDWOOD FALLS  CLOUDY    57  50  77 W7        29.86R
OLIVIA         PTSUNNY   57  50  77 W5        29.86R
PIPESTONE      CLOUDY    54  52  94 N5        29.89S
WINDOM         CLOUDY    57  52  82 W9        29.88R
WORTHINGTON    CLOUDY    57  52  82 W12       29.90S
JACKSON        CLOUDY    59  52  77 W7        29.89S
TRACY          CLOUDY    61  52  73 W6        29.88R
SLAYTON        CLOUDY    57  52  84 W8        29.90R
$$
MNZ065>067-074>077-082>085-091>093-241700-
   South Central Minnesota

CITY           SKY/WX    TMP DP  RH WIND       PRES   REMARKS
MANKATO        MOSUNNY   61  50  67 S12       29.87F
NEW ULM        PTSUNNY   57  52  82 SW5       29.86S
ST JAMES       CLOUDY    61  52  72 SW7       29.88S
FAIRMONT       CLOUDY    59  27  29 SW9       29.88F
GLENCOE        MOSUNNY   60  53  75 S8        29.86R
FARIBAULT      PTSUNNY   57  54  88 S9        29.88F
OWATONNA       PTSUNNY   57  52  82 S12G18    29.89F
WASECA         CLOUDY    55  50  82 S10       29.90F
ALBERT LEA     CLOUDY    54  54 100 S7        29.91S FOG
$$
MNZ078>079-086>088-094>096-241700-
   Southeast Minnesota

CITY           SKY/WX    TMP DP  RH WIND       PRES   REMARKS
ROCHESTER      PTSUNNY   58  53  84 S17       29.92F
RED WING       PTSUNNY   57  52  82 SE10      29.89F
STANTON        PTSUNNY   60  52  75 S9        29.87F
DODGE CENTER   CLOUDY    57  54  88 S13G18    29.91R
WINONA         MOSUNNY   55  52  88 SE9       29.95F
AUSTIN         CLOUDY    54  52  94 S10       29.92S FOG
PRESTON        MOSUNNY   56  55  95 S13       29.94F
$$
ABBREVIATIONS USED IN REMARKS
   TC - TEMPERATURES IN CELSIUS
  WCI - WIND CHILL INDEX
   HX - HEAT INDEX
  VSB - VISIBILITY
$$



USA.gov is the U.S. government's official web portal to all federal, state and local government web resources and services.